Location: Edmonton
(53.5500°N, 113.5000°W)
Time: 16:33:37
(UTC-06:00)

Daily predictions for brighter satellites

Satellite Brightness Start Highest point End
(mag) Time Altitude Azimuth Time Altitude Azimuth Time Altitude Azimuth
Cosmos 2369 4.0 22:16:52 10° NNW 22:22:35 61° NE 22:28:15 10° SE
ASTEX 1 3.6 22:19:05 10° S 22:24:00 78° W 22:28:55 10° N
Cosmos 2341 Rocket 4.2 22:18:55 10° N 22:25:12 62° ENE 22:31:30 10° SSE
MetOp-B 4.4 22:23:21 10° S 22:28:42 76° WSW 22:34:06 10° NNW
Okean 1-7 Rocket 3.7 22:26:26 10° S 22:30:51 62° E 22:35:19 10° NNE
Cosmos 1666 3.7 22:27:21 10° NNW 22:30:58 44° W 22:34:32 10° SSW
SPOT 1/Viking Rocket 3.6 22:25:55 10° SSE 22:31:04 72° ENE 22:36:14 10° NNW
ISS -1.7 22:30:42 10° SSE 22:31:28 11° SE 22:32:12 10° SE
Okean 2 3.9 22:27:43 10° SSE 22:31:35 43° E 22:35:28 10° NNE
SL-16 R/B 4.3 22:27:29 10° NNW 22:31:39 20° NNE 22:35:48 10° ENE
Cosmos 1697 Rocket 3.5 22:26:38 10° NNW 22:32:01 43° NE 22:37:22 10° ESE
Cosmos 839 Rocket 4.3 22:27:23 10° NW 22:33:42 87° SW 22:41:04 10° SE
Cosmos 1452 Rocket 4.2 22:30:21 10° NNW 22:35:27 47° NE 22:40:32 10° SE
Cosmos 1238 Rocket 4.2 22:30:03 10° S 22:36:49 78° E 22:43:14 10° NNE
IGS 5A 4.4 22:33:37 10° SE 22:37:25 36° ENE 22:41:15 10° N
Cosmos 2228 3.5 22:35:17 10° N 22:39:29 46° ENE 22:43:37 10° SSE
Aureole 3 Rocket 3.7 22:33:57 10° SSW 22:39:56 73° WNW 22:44:13 10° N
Aureole 1 Rocket 2.2 22:38:19 10° SSW 22:41:26 56° ESE 22:44:22 10° NNE
Cosmos 1371 Rocket 4.3 22:37:13 10° NNW 22:42:33 67° WSW 22:47:47 10° SSE
Cosmos 1892 Rocket 4.2 22:39:32 10° SSE 22:43:39 39° E 22:47:47 10° NNE
Cosmos 921 Rocket 3.2 22:40:38 10° NNW 22:45:11 75° ENE 22:49:39 10° SSE
Meteor 2-4 Rocket 3.9 22:42:21 10° SSW 22:48:02 85° WNW 22:53:56 10° NNE
ATLAS CENTAUR R/B 3.6 22:46:23 10° NNW 22:49:13 19° NNE 22:51:58 10° ENE
Cosmos 1606 Rocket 3.6 22:46:46 10° NNW 22:51:07 80° W 22:55:25 10° S
Lacrosse 5 rocket 2.4 22:46:53 10° W 22:51:25 55° N 22:56:00 10° ENE
NOSS 2-2 (E) 3.7 22:48:03 10° SW 22:52:18 84° SE 22:57:38 10° NE
Cosmos 923 Rocket 4.3 22:46:58 10° SSW 22:52:18 75° WNW 22:57:38 10° NNE
Cosmos 1656 3.8 22:46:56 10° NNW 22:52:24 70° NE 22:57:43 11° SE
USA 245 3.5 22:54:17 10° S 22:56:42 34° WSW 22:58:53 10° NNW
Cosmos 1833 Rocket 4.1 22:53:00 10° SE 22:56:58 20° E 23:00:57 10° NE
Meteor 1-4 Rocket 3.1 22:58:07 10° N 23:01:40 44° ENE 23:04:39 13° SE
Cosmos 1726 Rocket 3.7 22:57:41 10° NNW 23:02:02 75° W 23:06:20 10° S
Cosmos 2181 Rocket 4.1 22:59:05 10° S 23:05:21 64° E 23:11:35 10° NNE
SL-24 DEB 4.4 23:00:49 10° S 23:05:26 79° W 23:10:07 10° N
Cosmos 1515 3.7 23:03:21 10° S 23:07:06 64° E 23:10:54 10° NNE
Cosmos 2058 Rocket 3.1 23:04:25 10° NNW 23:08:50 84° WSW 23:13:09 11° S
PSLV R/B 3.5 23:07:34 15° SE 23:09:39 44° ENE 23:12:22 10° N
Cosmos 2360 Rocket 4.4 23:12:30 10° NNW 23:16:36 20° NNE 23:20:40 10° ENE
Cosmos 1818 4.2 23:11:17 10° WSW 23:16:42 62° NW 23:22:08 10° NE
USA 267 4.4 23:12:49 10° E 23:17:22 20° SE 23:21:19 12° SSE
CARTOSAT-1 3.6 23:13:46 13° SSE 23:17:40 88° E 23:22:01 10° NNW
Cosmos 1441 Rocket 4.5 23:14:58 10° SW 23:18:30 40° WNW 23:22:05 10° N
Cosmos 1980 Rocket 2.7 23:13:24 10° NNW 23:19:00 55° NE 23:24:11 12° SE
Cosmos 1025 Rocket 3.7 23:14:54 10° SSW 23:19:05 54° WNW 23:23:18 10° N
H-2A R/B 2.5 23:14:27 10° S 23:19:19 56° W 23:24:19 10° NNW
DMSP B5D2-2 4.2 23:17:47 10° NNE 23:23:04 64° ESE 23:28:18 10° S
Cosmos 2322 Rocket 3.6 23:22:04 10° NNW 23:27:12 33° NE 23:32:18 10° ESE
SL-27 R/B 3.6 23:26:03 10° SW 23:29:36 47° WNW 23:33:09 10° NNE
SeaSat 1 3.3 23:26:29 10° ESE 23:31:09 45° NE 23:35:52 10° NNW
Cosmos 1805 4.3 23:30:18 10° N 23:33:55 34° ENE 23:36:34 16° SE
NOSS 2-2 (D) 4.3 23:31:13 10° WSW 23:35:29 63° NW 23:40:49 10° NE
Meteor 1-22 Rocket 4.1 23:30:24 10° NNW 23:35:44 82° ENE 23:40:05 16° SSE
Cosmos 1812 Rocket 3.8 23:32:44 10° N 23:37:12 65° ENE 23:40:32 18° SSE
CZ-4C R/B 3.3 23:37:42 19° SSE 23:40:04 60° ENE 23:43:40 10° N
H-2A R/B 2.6 23:39:03 14° S 23:42:54 57° WSW 23:47:23 10° NNW
USA 229 DEB 3.8 23:35:56 10° NW 23:43:04 89° NE 23:49:37 13° SE
USA 229 3.8 23:36:02 10° NW 23:43:10 88° NE 23:49:44 13° SE
Cosmos 1544 3.7 23:39:51 10° N 23:43:21 43° ENE 23:45:36 19° SE
CZ-2C R/B 4.4 23:38:44 11° ESE 23:43:23 34° ENE 23:48:27 10° N
Cosmos 389 Rocket 3.9 23:42:03 10° N 23:45:06 27° ENE 23:47:15 15° ESE
COSMOS 2406 4.3 23:40:01 10° WSW 23:45:33 48° NW 23:51:05 10° NNE
SL-8 Rocket 4.4 23:40:21 10° NNW 23:46:30 62° W 23:52:21 12° S
ATLAS 2AS CENTAUR R/B 4.4 23:40:45 10° WNW 23:48:26 42° N 23:55:58 10° ENE
SME Rocket 3.8 23:44:52 15° SE 23:48:54 50° ENE 23:52:48 10° N
NOSS 3-1 (A) 4.5 23:42:29 10° NW 23:49:26 58° NNE 23:57:21 10° ESE
Cosmos 2366 rocket 4.1 23:44:29 10° NNW 23:50:40 75° W 23:55:56 15° S
Cosmos 1626 Rocket 3.5 23:51:29 17° S 23:54:45 72° E 23:59:05 10° NNE
